Location: Allen Lane School
(37.8198°N, 89.7382°W)
Time: 14:48:23
(UTC+00:00)

Cosmos 44 - Visible Passes

Search period start: 03 July 2022 00:00
Search period end: 13 July 2022 00:00
Orbit: 594 x 767 km, 65.1° (Epoch: 02 July)

Date Brightness Start Highest point End Pass type
(mag) Time Alt. Az. Time Alt. Az. Time Alt. Az.
03 Jul 4.7 06:06:03 28° ENE 06:06:03 28° ENE 06:08:24 10° NE visible
03 Jul 5.0 07:44:27 19° WNW 07:45:23 20° NW 07:48:46 10° N visible
04 Jul 4.0 06:41:50 47° NNW 06:41:50 47° NNW 06:45:28 10° NNE visible
05 Jul 4.8 05:39:11 27° NE 05:39:11 27° NE 05:41:22 10° NE visible
05 Jul 5.2 07:17:34 18° WNW 07:18:22 19° NW 07:21:34 10° N visible
06 Jul 4.2 06:14:51 42° NNW 06:14:51 42° NNW 06:18:22 10° NNE visible
07 Jul 4.7 05:12:05 28° NE 05:12:05 28° NE 05:14:20 10° NE visible
07 Jul 5.3 06:50:27 17° WNW 06:51:21 17° NW 06:54:22 10° N visible
08 Jul 4.2 05:47:37 41° NNW 05:47:37 41° NNW 05:51:15 10° NNE visible
09 Jul 4.4 04:44:42 33° NE 04:44:42 33° NE 04:47:17 10° NE visible
09 Jul 5.5 06:23:03 15° WNW 06:24:20 16° NW 06:27:09 10° N visible
10 Jul 5.4 03:41:40 12° ENE 03:41:40 12° ENE 03:42:16 10° ENE visible
10 Jul 4.2 05:20:01 41° NW 05:20:01 41° NW 05:24:08 10° NNE visible
11 Jul 3.7 04:16:50 48° ENE 04:16:50 48° ENE 04:20:13 10° NE visible
11 Jul 5.7 05:55:10 11° WNW 05:57:18 15° NW 05:59:54 10° N visible
12 Jul 4.8 03:13:27 18° E 03:13:27 18° E 03:15:20 10° ENE visible
12 Jul 4.4 04:51:46 33° W 04:52:48 37° NW 04:57:00 10° NNE visible
